Location: Bord�res
(43.2000°N, 0.2167°W)
Time: 21:51:34
(UTC+00:00)

Daily predictions for brighter satellites

Satellite Brightness Start Highest point End
(mag) Time Altitude Azimuth Time Altitude Azimuth Time Altitude Azimuth
CSL-04 DEB 4.3 18:16:03 10° NNE 18:20:02 85° ESE 18:24:03 10° SSW
ATLAS CENTAUR R/B 2.1 18:19:29 10° S 18:22:29 25° ESE 18:25:31 10° ENE
Okean-O 2.8 18:23:13 10° SSE 18:27:30 51° ENE 18:31:48 10° N
Cosmos 44 Rocket 3.6 18:22:35 10° NNW 18:27:45 56° NE 18:32:50 10° SE
CSL-04 Rocket 4.3 18:23:56 10° SE 18:28:58 37° ENE 18:34:00 10° N
ERS-2 2.7 18:25:51 10° NNE 18:29:16 36° E 18:32:39 10° SSE
Cosmos 2084 Rocket 4.0 18:25:55 10° NNW 18:30:02 40° NE 18:34:16 10° ESE
Cosmos 1844 Rocket 3.5 18:25:13 10° N 18:30:08 31° NE 18:35:01 10° ESE
Cosmos 1666 4.3 18:30:52 10° ESE 18:32:51 14° E 18:34:50 10° NE
Cosmos 1271 Rocket 3.1 18:31:13 10° NNW 18:34:56 66° W 18:38:39 10° S
HJ-1C 3.9 18:32:22 10° SE 18:35:27 36° ENE 18:38:31 10° N
Cosmos 1503 Rocket 4.4 18:32:02 10° N 18:36:57 40° ENE 18:41:47 10° SE
H-2A R/B 4.3 18:34:35 10° N 18:38:02 27° WNW 18:41:29 10° SW
PSLV R/B 3.8 18:36:21 10° NNE 18:40:26 67° ESE 18:44:27 10° S
Cosmos 1470 Rocket 3.7 18:36:15 10° S 18:40:36 54° E 18:44:57 10° NNE
Cosmos 1844 4.5 18:36:47 10° N 18:41:57 32° NE 18:46:58 10° ESE
Cosmos 2360 Rocket 2.4 18:37:31 10° S 18:42:52 46° ESE 18:48:17 10° NE
Cosmos 1602 3.8 18:40:22 10° S 18:44:15 86° W 18:48:12 10° N
CZ-4B R/B 2.9 18:41:29 10° N 18:44:19 36° WNW 18:47:10 10° SW
Ariane Rocket 4.5 18:42:04 12° E 18:44:40 18° ENE 18:48:00 10° NNE
Cosmos 2278 Rocket 4.2 18:45:43 10° NNE 18:46:36 10° NE 18:47:29 10° NE
Meteor 1-19 Rocket 4.3 18:44:10 10° N 18:50:07 77° E 18:55:52 10° SSE
Cosmos 1500 3.3 18:47:44 10° S 18:51:20 49° E 18:54:57 10° NNE
Cosmos 2333 Rocket 3.2 18:48:45 10° SSE 18:53:12 24° ESE 18:57:42 10° NE
Meteor 2-4 Rocket 4.0 18:48:58 10° N 18:54:40 50° ENE 19:00:23 10° SSE
Cosmos 1703 Rocket 4.2 18:50:51 10° N 18:54:50 33° ENE 18:58:46 10° SE
DMSP B5D1-3 4.5 18:50:25 10° NNE 18:55:36 77° ESE 19:00:45 10° S
SL-08 RB Rocket 3.8 18:51:42 10° SSE 18:56:05 53° ENE 19:00:32 10° N
Meteor 2-12 Rocket 4.4 18:50:41 10° S 18:56:41 72° E 19:02:46 10° NNE
Cosmos 1689 Rocket 2.0 18:54:52 10° N 18:57:45 82° WNW 19:00:37 10° SSW
Cosmos 1933 Rocket 3.5 18:57:14 10° S 19:01:30 59° E 19:05:49 10° NNE
BREEZE-M DEB (TANK) 3.7 19:01:28 10° SSW 19:03:31 24° SE 19:03:36 24° SE
Aureole 2 Rocket 1.4 19:02:55 10° NNW 19:05:27 83° ENE 19:06:52 22° SSE
Cosmos 1862 Rocket 4.1 19:02:31 10° NNW 19:06:58 62° W 19:11:23 10° S
Resurs 01 Rocket 3.8 19:12:41 11° NE 19:12:41 11° NE 19:13:04 10° NE
Cosmos 2322 Rocket 2.8 19:07:20 10° SW 19:12:50 59° WNW 19:18:24 10° NNE
Cosmos 2242 Rocket 3.6 19:08:31 10° N 19:12:59 59° E 19:17:23 10° SSE
Lacrosse 4 Rocket 2.5 19:11:20 10° SSE 19:14:29 25° ESE 19:14:29 25° ESE
Abrixas rocket 3.3 19:13:40 10° WNW 19:15:45 23° N 19:16:07 22° NNE
Helios 1A Rocket 3.1 19:14:26 10° S 19:18:28 71° WSW 19:22:31 10° NNW
YAOGAN 1 3.9 19:15:12 10° S 19:19:17 41° W 19:23:24 10° NNW
SME Rocket 4.3 19:12:16 10° NNE 19:19:33 43° E 19:24:28 10° SSE
Nadezhda 3 Rocket 4.5 19:15:38 10° NNW 19:21:56 66° W 19:28:14 10° S
COSMOS 2428 3.3 19:18:15 10° SSE 19:23:10 31° ESE 19:24:51 26° ENE
SJ-6B 3.3 19:22:30 36° ESE 19:23:22 40° ENE 19:27:10 10° N
GP-B 3.1 19:22:50 10° S 19:27:15 86° W 19:31:44 10° N
Meteor 1-14 Rocket 4.5 19:22:12 10° SSW 19:27:44 69° WNW 19:33:16 10° N
ASTEX 1 3.7 19:24:01 10° NNE 19:28:36 39° E 19:30:11 30° SE
Cosmos 2219 Rocket 2.4 19:24:50 10° S 19:30:02 42° ESE 19:35:18 10° NE
Meteor 1-11 Rocket 3.9 19:25:04 10° SSE 19:30:31 47° E 19:35:53 10° NNE
MetOp-A 4.0 19:26:59 10° SSE 19:32:18 69° ENE 19:37:38 10° N
OBJECT-B 2.6 19:36:26 21° NNE 19:36:26 21° NNE 19:37:43 10° N
ARGOS 4.2 19:31:22 10° S 19:36:35 48° W 19:41:50 10° NNW
SL-16 R/B 4.0 19:32:43 10° WSW 19:37:44 32° NW 19:42:47 10° N
SJ 16-02 3.2 19:37:49 10° N 19:39:35 17° NNE 19:39:35 17° NNE
SeaSat 1 3.1 19:37:16 10° NNE 19:42:06 54° WNW 19:46:53 10° SW
Okean 1-7 3.0 19:37:45 10° N 19:42:09 81° W 19:45:45 15° S
CZ-4 R/B 4.3 19:40:16 10° SW 19:42:52 17° W 19:45:30 10° NW
Cosmos 1066 Rocket 4.4 19:38:49 10° N 19:44:23 49° ENE 19:45:41 42° ESE
Meteor 1-13 Rocket 4.2 19:38:53 10° N 19:44:50 70° ENE 19:48:31 24° SSE
USA 234 3.2 19:39:53 17° NE 19:45:10 84° SE 19:51:44 10° SW
H-2A R/B 4.3 19:42:45 10° SSW 19:47:17 27° W 19:51:53 10° NW
IRS-1A Rocket 4.2 19:46:43 34° SE 19:49:10 66° ENE 19:54:42 10° N
CZ-2C R/B 3.5 19:44:33 10° N 19:49:51 51° WNW 19:55:00 10° SW
Cosmos 2322 3.6 19:44:16 10° SSW 19:49:58 79° ESE 19:55:43 10° NNE
BREEZE-M DEB (TANK) 3.4 19:48:07 10° NW 19:50:45 36° NNE 19:51:09 35° NNE
SL-4 R/B 3.0 19:51:49 10° NW 19:54:12 30° N 19:54:12 30° N
DMSP B5D2-2 4.4 19:50:31 10° N 19:55:43 67° WNW 20:00:52 10° SSW
Cosmos 1869 Rocket 3.5 19:51:26 10° S 19:55:47 86° W 20:00:12 10° N
SL-8 Rocket 4.0 19:51:55 10° S 19:58:10 79° W 20:04:24 10° N
FALCON 9 DEB 4.2 19:56:57 10° WNW 19:59:26 44° WNW 19:59:26 44° WNW
ATLAS CENTAUR R/B 3.1 19:58:08 10° WSW 20:01:16 27° NW 20:03:10 17° N
Cosmos 1666 4.1 20:04:35 10° SW 20:08:03 36° WNW 20:11:32 10° N
Cosmos 2366 rocket 4.1 20:06:55 10° SSW 20:13:13 75° W 20:19:35 10° N
Cosmos 1844 Rocket 3.7 20:08:55 10° NW 20:14:07 42° WSW 20:17:54 18° SSW
SL-08 R/B 4.4 20:11:58 42° SSE 20:14:15 70° E 20:20:41 10° NNE
SPOT 3 Rocket 4.3 20:18:38 42° NNE 20:18:38 42° NNE 20:22:16 10° N
Cosmos 1777 Rocket 4.1 20:12:21 10° NNW 20:17:35 70° WSW 20:18:17 62° SSW
Okean 3 4.2 20:16:07 10° NNW 20:19:31 50° NW 20:19:31 50° NW
Ariane Rocket 3.3 20:22:15 55° SSW 20:23:06 65° WSW 20:28:11 10° NNW
Cosmos 2360 Rocket 4.0 20:22:13 10° WSW 20:27:05 29° NW 20:31:58 10° N
Cosmos 2278 Rocket 3.0 20:26:35 10° NNW 20:30:28 39° NNE 20:30:28 39° NNE
Cosmos 1727 Rocket 4.0 20:30:46 10° NNW 20:36:56 74° W 20:37:44 65° SSW
Cosmos 2333 Rocket 2.9 20:31:34 10° SW 20:37:06 51° WNW 20:42:41 10° NNE
Meteor 2-20 4.4 20:32:08 10° N 20:38:13 81° W 20:38:13 81° W
Resurs 01 Rocket 3.8 20:50:14 20° NNW 20:50:14 20° NNW 20:51:38 10° NNW
Lacrosse 4 Rocket 3.9 20:49:27 10° WSW 20:50:57 19° WSW 20:50:57 19° WSW
COSMOS 2428 3.8 21:01:56 10° SW 21:14:01 - NNE 21:07:14 41° WNW
Cosmos 2219 Rocket 3.8 21:09:12 10° WSW 21:14:06 31° NW 21:19:03 10° N
SJ 16-02 4.2 21:15:48 10° NW 21:16:35 15° NW 21:16:35 15° NW
USA 234 4.3 21:27:15 38° NNW 21:27:48 39° NNW 21:33:46 10° W
